Wind_Speed
7 8 9 9 10 10 11 11 12 12 13 13 14 14 15 15 16 16 16 17 17 17 18 18 18 18 18 19 19 19 19 19 19 19 18 18 18 18 18 17 17 17 17
7 8 8 9 9 10 11 12 12 13 14 14 15 15 15 16 16 17 17 18 18 18 19 19 19 19 19 19 19 19 19 19 19 19 19 19 19 18 18 18 18 18 17
8 8 9 9 10 10 11 11 12 13 14 14 15 15 16 16 17 17 18 18 19 19 19 19 20 20 20 20 19 19 19 19 19 19 19 19 19 19 19 18 18 18 18
8 8 9 9 10 10 11 11 12 12 13 14 15 15 16 17 17 18 18 19 19 19 19 19 20 20 20 19 19 19 19 19 19 19 19 19 19 19 19 18 18 18 18
7 8 8 9 10 10 11 11 12 13 14 14 15 16 17 17 18 18 19 19 19 19 20 20 20 20 20 19 20 19 19 19 19 20 19 19 19 19 19 18 18 18 18
8 8 9 9 10 11 11 12 13 14 14 15 16 16 17 18 18 18 19 19 19 20 20 20 20 20 20 20 20 20 20 20 20 20 20 20 20 19 19 19 19 19 19
8 8 9 10 10 11 12 13 14 15 15 16 17 17 18 18 19 19 20 20 20 20 21 21 21 21 21 21 21 21 21 21 21 21 21 21 21 21 21 21 21 21 21
10 9 10 11 11 12 13 14 15 15 16 17 18 19 19 20 20 21 21 21 22 22 22 22 22 23 23 23 22 22 22 23 23 23 23 23 23 23 23 23 23 22 22
11 11 12 12 13 14 15 16 16 17 18 18 19 20 20 21 22 22 23 23 24 24 24 24 25 25 25 25 24 24 24 25 25 25 25 25 25 25 25 25 25 25 24
12 13 14 15 15 16 17 17 18 19 19 20 21 21 22 23 23 24 24 25 25 26 26 26 26 27 27 27 27 27 27 27 28 28 28 28 28 28 28 28 28 27 27
14 15 15 16 17 18 18 19 20 20 21 22 22 23 24 24 25 26 26 27 27 27 28 28 28 28 28 29 29 29 30 30 30 31 31 31 31 31 31 31 31 31 31
15 16 17 18 19 19 19 20 21 21 22 23 23 24 25 26 26 27 27 28 28 28 29 29 30 30 31 31 31 32 32 33 33 34 34 34 34 35 35 35 35 35 35
16 17 18 19 20 20 21 21 21 22 23 23 24 25 25 26 26 27 28 28 29 29 30 31 31 32 32 33 34 34 35 35 36 36 37 37 38 38 38 39 39 40 40
18 19 20 20 21 21 21 22 22 23 24 24 25 25 26 26 27 27 28 29 30 30 31 32 32 33 34 35 35 36 36 37 38 38 39 40 41 41 42 42 43 43 44
20 19 20 21 21 22 22 23 23 24 25 25 25 25 26 27 27 28 29 30 31 32 32 33 34 34 35 36 37 37 38 38 39 39 40 41 42 43 44 45 46 46 47
21 21 21 21 22 22 23 24 24 25 25 26 26 26 27 28 28 29 30 31 32 33 33 34 35 35 36 36 37 37 38 39 39 40 41 42 43 44 45 46 47 48 49
22 22 22 22 23 23 24 24 25 25 26 27 27 28 29 29 30 31 32 33 33 34 34 35 35 36 36 37 37 38 38 39 40 41 41 42 44 45 46 47 48 49 49
22 23 23 24 24 24 25 25 26 26 27 28 28 29 30 30 31 32 33 34 34 35 35 35 36 36 37 37 37 38 39 40 40 41 42 43 44 45 46 47 48 49 50
23 23 23 24 24 25 25 26 26 27 27 28 29 30 31 32 33 33 34 34 34 35 35 36 36 36 37 38 38 38 39 39 40 41 42 43 44 45 46 48 49 50 51
23 23 23 24 24 24 25 26 27 27 28 29 30 31 32 33 33 34 34 34 34 35 35 36 36 37 37 38 38 38 39 40 41 42 43 44 45 46 47 48 50 51 52
23 23 23 23 24 24 25 26 27 28 29 30 31 32 33 34 34 34 34 35 35 36 36 37 37 38 39 40 40 40 40 41 42 44 44 45 47 48 49 50 51 52 54
23 23 23 23 23 24 26 27 28 29 30 32 33 34 34 35 35 35 35 36 36 37 38 38 39 40 41 43 43 43 42 42 44 45 47 48 49 51 53 54 56 57 58
23 23 23 23 24 25 27 29 30 31 32 34 34 35 35 36 36 37 37 38 38 39 40 41 42 43 43 45 47 48 48 47 47 47 49 51 53 55 57 58 60 61 62
23 23 24 25 26 27 28 30 31 33 34 35 36 36 37 38 39 39 40 40 41 42 43 43 45 46 46 47 49 52 53 54 54 53 52 53 56 57 59 61 63 65 66
24 24 25 26 27 29 30 32 33 34 35 36 37 38 39 40 40 41 42 43 43 44 45 46 47 49 50 51 53 54 56 58 60 61 59 58 59 60 62 64 66 67 69
25 26 27 28 29 31 32 33 35 36 37 38 39 40 41 41 42 43 44 44 45 46 48 49 50 52 53 55 56 57 59 60 62 64 65 65 64 64 65 66 68 70 72
Wind_Direction
238 243 249 253 259 264 269 273 276 279 281 283 285 286 287 287 287 287 286 285 284 284 284 283 282 282 282 282 282 282 282 281 280 278 277 275 273 272 271 270 269 269 268
242 246 251 255 259 263 268 272 275 277 280 282 283 285 285 285 285 285 285 284 283 282 282 281 281 280 279 279 278 279 278 278 276 275 273 272 270 269 268 268 268 267 266
244 248 253 257 262 266 270 273 276 278 280 281 282 283 283 284 285 284 284 284 283 281 280 279 279 278 277 277 275 274 274 273 272 271 270 269 268 267 267 266 266 265 265
248 251 255 259 263 267 271 274 276 278 279 280 281 282 283 284 284 284 284 283 282 280 279 277 277 276 275 274 273 271 270 269 269 268 267 267 266 266 265 265 265 264 264
256 258 260 263 266 270 273 274 275 276 277 279 280 281 282 283 283 283 282 281 280 279 278 278 277 276 274 272 271 269 267 266 266 265 265 264 264 264 264 264 264 263 263
262 263 266 268 271 273 274 275 276 276 277 279 280 280 281 282 282 282 281 280 280 279 278 278 277 275 273 271 269 267 265 264 264 264 264 263 262 262 262 262 262 262 262
269 267 270 273 274 276 277 277 278 278 279 279 280 280 281 281 281 281 281 280 279 278 278 277 276 275 273 271 268 266 265 264 263 263 262 261 261 260 260 260 260 260 260
276 276 276 278 279 280 280 281 280 280 280 280 280 280 280 280 280 280 280 280 279 278 278 277 276 274 272 270 268 266 264 264 263 263 262 261 261 260 260 260 260 260 260
281 281 281 281 282 282 282 282 282 281 281 281 280 279 279 279 279 279 279 279 278 278 277 276 276 275 273 270 268 266 265 264 264 264 263 262 261 260 260 260 260 260 260
282 284 284 284 284 284 284 284 284 283 282 282 281 280 279 279 278 278 279 279 278 278 277 277 275 274 272 270 268 266 266 265 264 264 264 263 262 261 261 261 261 261 261
282 284 285 284 285 285 285 285 285 285 284 283 283 282 281 280 280 279 279 279 278 278 277 276 275 274 272 270 269 267 266 265 265 264 264 263 263 262 262 262 262 262 262
282 283 285 286 286 286 286 286 286 286 286 285 284 284 283 282 281 280 280 279 278 278 277 276 275 273 272 271 269 268 267 266 266 265 265 265 264 263 263 263 262 262 263
282 284 285 287 287 287 287 287 287 287 287 286 285 285 284 283 282 281 281 280 279 278 278 277 275 274 273 272 271 270 269 268 267 267 266 266 266 265 265 265 264 264 264
282 284 286 287 287 287 287 288 288 288 287 287 286 285 285 284 283 283 282 281 280 280 279 278 277 275 274 273 272 271 270 269 269 269 268 267 267 267 266 266 266 266 266
283 283 284 285 286 287 287 288 288 288 288 287 286 286 285 285 284 283 283 283 282 282 281 279 278 277 275 274 273 273 272 272 271 270 270 269 269 268 268 267 267 267 267
281 282 282 283 284 285 286 287 288 288 288 287 287 286 286 286 285 284 283 282 282 282 281 280 279 278 277 276 275 274 274 273 273 272 272 271 271 270 270 269 269 268 268
279 280 281 282 283 284 285 286 287 287 287 287 287 287 287 286 286 285 285 284 283 282 282 281 280 278 277 276 276 275 274 273 273 273 273 272 272 272 271 271 271 270 270
276 278 280 282 283 284 285 285 286 286 286 287 287 287 287 287 286 286 285 285 284 283 282 281 280 279 278 277 276 276 275 275 274 274 274 273 273 274 273 273 272 272 271
275 277 279 281 283 284 285 286 287 287 288 289 289 289 289 289 288 288 287 286 285 284 283 282 281 280 278 277 277 276 276 275 275 275 274 275 275 275 275 275 274 274 273
274 276 278 280 282 284 285 286 287 288 289 290 291 291 290 289 289 289 288 287 286 285 284 283 282 281 280 279 278 277 277 277 276 276 276 276 276 276 276 276 275 275 275
272 274 276 279 281 283 285 286 287 288 289 291 291 291 291 290 289 288 288 287 286 285 284 284 283 283 282 281 279 278 278 278 278 278 278 278 278 277 277 277 276 276 276
270 272 275 277 280 283 285 287 288 288 290 291 292 292 291 290 289 288 288 288 288 287 286 285 285 284 284 283 282 280 279 278 280 280 281 280 280 279 279 279 278 278 277
268 271 274 277 281 283 286 288 289 290 292 292 292 292 292 290 289 289 289 288 288 287 287 286 286 285 285 285 285 284 282 279 278 278 280 280 281 281 281 280 280 279 278
267 271 274 278 282 285 287 289 291 292 292 293 293 293 293 292 290 290 289 289 289 289 288 288 288 287 287 287 287 287 286 285 283 280 278 279 280 280 280 280 280 280 279
268 272 275 279 283 286 288 290 291 293 293 293 293 293 293 292 291 290 290 290 289 289 288 288 288 288 288 288 288 288 288 288 287 286 283 282 282 282 281 281 281 280 280
269 273 277 280 284 287 289 291 292 293 293 293 294 293 293 292 291 291 290 290 290 289 289 289 289 289 289 289 289 289 289 289 288 287 287 286 285 284 283 283 282 282 281
Height
5884 5884 5884 5885 5885 5885 5885 5886 5886 5886 5886 5886 5886 5885 5885 5885 5884 5884 5884 5883 5883 5882 5881 5881 5880 5880 5879 5878 5878 5877 5877 5876 5875 5875 5874 5874 5874 5873 5873 5873 5873 5872 5872
5882 5883 5883 5883 5883 5883 5883 5884 5884 5884 5883 5883 5883 5883 5883 5882 5882 5881 5881 5880 5879 5879 5878 5877 5877 5876 5876 5875 5874 5874 5873 5872 5872 5871 5871 5870 5870 5870 5869 5869 5869 5869 5869
5880 5881 5881 5881 5881 5881 5881 5881 5881 5881 5881 5881 5881 5880 5880 5879 5879 5878 5878 5877 5876 5875 5875 5874 5873 5872 5872 5871 5871 5870 5869 5869 5868 5868 5867 5867 5866 5866 5866 5865 5865 5865 5865
5879 5879 5879 5879 5879 5879 5879 5879 5879 5879 5879 5878 5878 5877 5877 5876 5876 5875 5874 5873 5873 5872 5871 5870 5869 5869 5868 5867 5867 5866 5865 5865 5864 5864 5863 5863 5862 5862 5862 5861 5861 5861 5861
5877 5877 5877 5877 5877 5877 5877 5877 5876 5876 5876 5875 5875 5874 5874 5873 5872 5872 5871 5870 5869 5868 5867 5866 5866 5865 5864 5863 5863 5862 5861 5861 5860 5860 5859 5859 5858 5858 5858 5857 5857 5856 5856
5875 5875 5875 5875 5875 5874 5874 5874 5874 5873 5873 5873 5872 5871 5870 5870 5869 5868 5867 5866 5865 5864 5864 5863 5862 5861 5860 5859 5859 5858 5857 5856 5856 5855 5855 5855 5854 5854 5853 5853 5852 5852 5852
5873 5873 5873 5873 5872 5872 5872 5871 5871 5870 5870 5869 5869 5868 5867 5866 5865 5864 5864 5863 5862 5861 5860 5859 5858 5857 5856 5855 5855 5854 5853 5852 5852 5851 5851 5850 5850 5849 5849 5848 5848 5848 5847
5871 5871 5871 5870 5870 5869 5869 5868 5868 5867 5867 5866 5865 5864 5863 5863 5862 5861 5860 5859 5858 5857 5856 5855 5854 5853 5852 5851 5850 5850 5849 5848 5847 5847 5846 5845 5845 5844 5844 5844 5843 5843 5843
5868 5868 5868 5868 5867 5867 5866 5865 5865 5864 5863 5862 5861 5861 5860 5858 5857 5856 5855 5854 5853 5852 5851 5850 5849 5848 5847 5846 5846 5845 5844 5843 5842 5842 5841 5840 5840 5839 5839 5838 5838 5838 5837
5866 5866 5865 5865 5864 5863 5863 5862 5861 5860 5859 5858 5857 5856 5855 5854 5853 5852 5851 5849 5848 5847 5846 5845 5844 5843 5842 5841 5840 5839 5839 5838 5837 5836 5835 5835 5834 5834 5833 5833 5832 5832 5832
5863 5863 5862 5861 5861 5860 5859 5858 5857 5856 5855 5854 5853 5852 5851 5849 5848 5847 5846 5844 5843 5842 5841 5839 5838 5837 5836 5835 5834 5833 5832 5832 5831 5830 5829 5829 5828 5827 5827 5826 5826 5826 5825
5861 5859 5858 5858 5857 5856 5855 5854 5853 5852 5851 5850 5848 5847 5846 5844 5843 5841 5840 5839 5837 5836 5835 5834 5832 5831 5830 5829 5828 5827 5826 5825 5824 5823 5823 5822 5821 5821 5820 5819 5819 5819 5818
5857 5856 5855 5854 5853 5852 5851 5850 5849 5848 5846 5845 5843 5842 5841 5839 5837 5836 5834 5833 5831 5830 5828 5827 5826 5824 5823 5822 5821 5820 5819 5818 5817 5816 5815 5815 5814 5813 5813 5812 5811 5811 5810
5853 5852 5851 5849 5848 5847 5846 5845 5844 5843 5841 5840 5838 5837 5835 5834 5832 5830 5829 5827 5825 5824 5822 5821 5819 5817 5816 5815 5813 5812 5811 5810 5809 5808 5807 5806 5805 5805 5804 5803 5803 5802 5802
5848 5848 5847 5845 5844 5843 5842 5840 5839 5838 5836 5835 5833 5832 5830 5828 5826 5825 5823 5821 5819 5817 5815 5814 5812 5810 5809 5807 5806 5804 5803 5802 5801 5800 5798 5797 5796 5795 5794 5793 5793 5792 5792
5843 5843 5842 5841 5840 5838 5837 5836 5834 5833 5831 5829 5828 5826 5824 5822 5821 5819 5817 5814 5812 5810 5808 5806 5804 5803 5801 5799 5798 5796 5795 5793 5792 5790 5789 5787 5786 5785 5784 5783 5782 5781 5781
5838 5838 5837 5836 5835 5834 5832 5831 5829 5827 5826 5824 5822 5820 5818 5816 5814 5812 5810 5808 5806 5803 5801 5799 5797 5795 5793 5791 5790 5788 5786 5784 5783 5781 5779 5778 5776 5775 5773 5772 5771 5770 5769
5833 5832 5832 5831 5830 5828 5827 5825 5824 5822 5820 5818 5816 5814 5812 5810 5807 5805 5803 5800 5798 5796 5794 5791 5789 5787 5785 5783 5782 5780 5778 5776 5774 5772 5770 5768 5766 5764 5763 5761 5760 5758 5757
5828 5827 5826 5825 5824 5822 5821 5819 5818 5816 5814 5812 5810 5807 5805 5802 5800 5797 5795 5793 5790 5788 5785 5783 5781 5779 5777 5775 5773 5771 5769 5767 5765 5762 5760 5758 5756 5754 5752 5750 5748 5746 5745
5822 5821 5820 5819 5818 5817 5815 5813 5812 5810 5808 5805 5803 5800 5798 5795 5792 5790 5787 5785 5782 5780 5777 5775 5772 5770 5768 5766 5764 5762 5760 5758 5755 5753 5750 5748 5745 5743 5741 5739 5737 5734 5732
5817 5816 5815 5814 5813 5811 5810 5808 5806 5804 5801 5799 5796 5793 5791 5788 5785 5782 5779 5777 5774 5771 5768 5766 5764 5761 5758 5756 5754 5753 5751 5748 5745 5742 5740 5737 5735 5732 5729 5727 5725 5722 5720
5811 5810 5809 5808 5807 5805 5804 5802 5800 5797 5795 5792 5789 5786 5783 5780 5777 5774 5771 5768 5765 5763 5760 5757 5754 5752 5749 5745 5743 5742 5741 5740 5736 5732 5729 5725 5722 5719 5717 5714 5711 5709 5706
5805 5804 5804 5802 5801 5799 5797 5795 5793 5790 5787 5785 5782 5778 5775 5772 5769 5766 5763 5760 5757 5754 5750 5747 5744 5742 5739 5735 5731 5728 5727 5727 5726 5724 5719 5715 5710 5707 5703 5699 5696 5693 5690
5799 5798 5797 5796 5794 5792 5790 5788 5785 5783 5780 5777 5774 5770 5767 5763 5760 5757 5754 5750 5747 5744 5741 5737 5734 5730 5728 5724 5720 5716 5712 5709 5707 5708 5708 5703 5698 5694 5689 5685 5681 5677 5673
5793 5792 5791 5789 5788 5785 5783 5780 5778 5775 5772 5769 5765 5762 5758 5755 5751 5748 5744 5741 5737 5734 5730 5727 5723 5719 5715 5712 5708 5704 5700 5695 5690 5686 5687 5687 5684 5679 5674 5669 5665 5659 5655
5786 5785 5784 5782 5780 5778 5775 5773 5770 5766 5763 5760 5756 5753 5749 5745 5742 5738 5734 5730 5727 5723 5719 5715 5711 5707 5703 5699 5694 5690 5685 5681 5676 5670 5667 5665 5664 5662 5657 5652 5646 5640 5635